Regional Weather Roundup
Issued by NWS Newport/Morehead, NC

Home | Current Version | Previous Version | Text Only | Print | Product List | Glossary On
Versions: 1 2 3 4 5 6 7 8 9 10 11 12 13 14 15 16 17 18 19 20 21 22 23 24 25 26 27 28 29 30 31 32 33 34 35 36 37 38 39 40 41 42 43 44 45 46 47 48 49 50
000
ASUS42 KMHX 272212
RWRMHX
WEATHER ROUNDUP FOR EASTERN NORTH CAROLINA
NATIONAL WEATHER SERVICE NEWPORT/MOREHEAD CITY NC
500 PM EST FRI FEB 27 2015

NOTE: "FAIR" INDICATES FEW OR NO CLOUDS BELOW 12,000 FEET
WITH NO SIGNIFICANT WEATHER AND/OR OBSTRUCTIONS TO VISIBILITY

NCZ015>017-031-032-045>047-102-103-272300-
NORTH COAST

CITY           SKY/WX    TMP DP  RH WIND       PRES   REMARKS
EDENTON        SUNNY     46  28  49 NW5       30.40R
ELIZABETH CITY PTSUNNY   36  27  69 NE13      30.43R
KITTY HAWK     CLEAR     36  29  75 N8        30.41S
MANTEO         SUNNY     37  28  70 NE12      30.43R

$$

NCZ045>047-081-094-103-104-272300-
CENTRAL COAST

CITY           SKY/WX    TMP DP  RH WIND       PRES   REMARKS
FRISCO         PTSUNNY   38  29  70 NE9G17    30.40R
SWANQUARTER      N/A     46 N/A N/A N3G13     30.36S

$$

NCZ095-097-098-100-101-272300-
SOUTHERN COAST

CITY           SKY/WX    TMP DP  RH WIND       PRES   REMARKS
BEAUFORT       PTSUNNY   45  31  58 NE10      30.38S
CEDAR ISLAND     N/A     41 N/A N/A N6        30.41S
JACKSONVILLE   MOSUNNY   49  31  49 N12       30.38R
PINEY ISLAND     N/A    N/A N/A N/A MISG      30.39R
WILMINGTON     PTSUNNY   47  34  60 SE7       30.37R


$$

NCZ011>013-027>030-043-044-078>080-089-090>093-098-272300-
COASTAL PLAIN

CITY           SKY/WX    TMP DP  RH WIND       PRES   REMARKS
AHOSKIE        SUNNY     40  28  62 N8G18     30.42R
CLINTON        SUNNY     50  30  45 NW6       30.39R
ELIZABETHTOWN  SUNNY     50  30  46 CALM      30.37R
GOLDSBORO      SUNNY     48  31  52 N8        30.38R
GREENVILLE     MOSUNNY   46  27  46 N7        30.40R
HAVELOCK       MOSUNNY   48  28  46 N8        30.39R
KENANSVILLE    SUNNY     48  28  44 N3        30.39R
KINSTON        SUNNY     48  28  46 N6        30.40R
NEW BERN       SUNNY     48  28  46 N10       30.39S
RICHLANDS      MOSUNNY   48  28  46 N9        30.39R
ROCKY MOUNT    SUNNY     46  25  43 N8        30.41R
WASHINGTON     SUNNY     46  29  52 N7        30.40R
WHITEVILLE     MOSUNNY   51  29  43 NE5       30.36R

$$

AMZ130-135-150-152-154-156-158-170-250-252-270-ANZ085-086-088-633-658-670-272300-
MARINE OBSERVATIONS

STATION/POSITION TIME  TEMP    WIND        PRES    WAVE   SWELL
                       AIR SEA DIR/SP/G            HT/PER HT/PER
                 (UTC) (F)     (DEG/KT/KT) (MB)    (FT/S) (FT/S)
CHESAPEAKE LIGHT 2100   32      10/ 15/ 15 1031.1
64 E VA BEACH    2150   40 61  360/ 16/ 19 1029.5    6/ 9   5/ 9
DUCK             2106   35 35   30/ 19/ 21 1029.0
2 E DUCK         2111      35                N/A     5/11   2/11
10 NE DUCK       2122      36                N/A     6/11   3/11
OREGON INLET     2106   37 38  360/ 13/ 16 1029.9
HATTERAS CG      2106   39 40   30/ 12/ 16 1029.5
CAPE LOOKOUT     2200   45      20/ 10/ 14 1028.6
BEAUFORT LAB     2100   46 40   50/  7/ 11 1027.6
27 SE WRIGHTSVLE NOT AVBL
5 SE WRIGHTSVLE  NOT AVBL
225 S CAPE HAT   2150   63 70  360/ 17/ 23 1024.5   10/11   8/11
41 SE CHARLESTON 2150   50 66   30/ 17/ 21 1026.9    5/ 5   3/11

$$



USA.gov is the U.S. government's official web portal to all federal, state and local government web resources and services.